Torna al catalogo

STARLINK-31199

AttivoComunicazioniVLEO
NORAD 58861·PAYLOAD·🇺🇸 United States

Lanciato Jan 29, 2024 da Cape Canaveral Space Force Station

Loading…

Prossimi Passaggi (prossime 24 ore)

TLE

AggiornatoSource: CelesTrak SupGP

Epoca: Sep 15, 2026, 03:14 UTC

1 58861C 24019J   26258.13520833 -.00021334  00000+0 -77330-3 0  2587
2 58861  43.0011 258.9355 0001256 250.6560 222.7517 15.27564876    12

Traccia STARLINK-31199 in tempo reale con AllMySat

Download on the App Store